Regional Weather Roundup
Issued by NWS Sioux Falls, SD

Home | Current Version | Previous Version | Text Only | Print | Product List | Glossary Off
Versions: 1 2 3 4 5 6 7 8 9 10 11 12 13 14 15 16 17 18 19 20 21 22 23 24 25 26 27 28 29 30 31 32 33 34 35 36 37 38 39 40 41 42 43 44 45 46 47 48 49 50

000
ASUS43 KFSD 300502
RWRFSD

WEATHER ROUNDUP FOR SE SOUTH DAKOTA/SW MINNESOTA/NW IOWA
NATIONAL WEATHER SERVICE SIOUX FALLS SD
1200 AM CDT SUN AUG 30 2015

NOTE: "FAIR" INDICATES FEW OR NO CLOUDS BELOW 12,000 FEET WITH NO
SIGNIFICANT WEATHER AND OR OBSTRUCTIONS TO VISIBILITY.


SDZ038>040-050-052>070-300600-
SOUTHEAST SOUTH DAKOTA

CITY           SKY/WX    TMP DP  RH WIND       PRES   REMARKS
BROOKINGS      CLEAR     64  61  88 SE8       30.00F
CHAMBERLAIN    CLEAR     68  61  79 SE3       29.92S
HURON          CLEAR     67  65  93 S9        29.91F
MADISON        CLOUDY    64  64 100 S14G20    29.99F FOG
MITCHELL       CLEAR     67  66  97 S10       29.94F
SIOUX FALLS    PTCLDY    64  61  90 S9        30.00F
WINNER         FAIR      76  59  55 S16       29.93F
YANKTON        CLEAR     64  63  94 S8        29.99S
$$

MNZ071-072-080-081-089-090-097-098-300600-
SOUTHWEST MINNESOTA

CITY           SKY/WX    TMP DP  RH WIND       PRES   REMARKS
FAIRMONT       PTCLDY    57  52  82 S7        30.03F
JACKSON        CLOUDY    61  61 100 S8        30.04F FOG
LUVERNE          N/A     61  59  94 S6        30.02F FOG
MARSHALL       CLEAR     64  59  82 S9        29.98F
MONTEVIDEO     CLEAR     64  64 100 SW9       29.96F
PIPESTONE      PTCLDY    63  61  94 S6        30.01S FOG
REDWOOD FALLS  CLEAR     63  61  93 SE9       29.98F
TRACY          CLEAR     65  63  93 S13       29.99F
WINDOM         MOCLDY    63  61  94 CALM      30.02S
WORTHINGTON    CLOUDY    63  59  88 S12       30.02S
$$

IAZ001>003-012>014-020>022-031-032-NEZ013-014-SDZ071-300600-
NORTHWEST IOWA

CITY           SKY/WX    TMP DP  RH WIND       PRES   REMARKS
DENISON        CLOUDY    64  63  94 S7        30.04F
ESTHERVILLE    CLOUDY    60  60 100 S10       30.04S FOG
SIOUX CITY     NOT AVBL
SPENCER        FOG       62  60  93 S12       30.04F VSB 1/2
$$

ABBREVIATIONS USED IN REMARKS
   TC - TEMPERATURE IN CELSIUS
  WCI - WIND CHILL INDEX
   HX - HEAT INDEX
  VSB - VISIBILITY



USA.gov is the U.S. government's official web portal to all federal, state and local government web resources and services.